| time (UTC) | temp F | wind direction | speed knots | gust knots | rain 1hr in | rain 24hr in | rain mn in | humidity % | barometer mb |
| 20260504110248 | 54 | 226 | 4.3 | 5.2 | 0.08 | 0.00 | 0.54 | 84 | 1010.8 |
| 20260504100248 | 55 | 162 | 7.0 | 7.0 | 0.09 | 0.00 | 0.46 | 82 | 1011.2 |
| 20260504081747 | 55 | 306 | 7.0 | 7.0 | 0.03 | 0.00 | 0.25 | 77 | 1011.9 |
| 20260504081248 | 56 | 299 | 7.8 | 9.6 | 0.03 | 0.00 | 0.23 | 75 | 1011.9 |
| 20260504080755 | 56 | 222 | 1.7 | 1.7 | 0.03 | 0.00 | 0.22 | 77 | 1011.9 |
| 20260504080247 | 56 | 219 | 3.5 | 4.3 | 0.03 | 0.00 | 0.21 | 77 | 1011.5 |
| 20260504070247 | 57 | 168 | 7.0 | 7.8 | 0.03 | 0.00 | 0.18 | 73 | 1011.5 |
| 20260504060248 | 56 | 287 | 2.6 | 2.6 | 0.02 | 0.00 | 0.15 | 72 | 1011.2 |
| 20260504050747 | 55 | 96 | 0.0 | 0.0 | 0.05 | 0.00 | 0.15 | 71 | 1010.8 |
| 20260504050247 | 54 | 108 | 4.3 | 4.3 | 0.04 | 0.00 | 0.15 | 76 | 1010.8 |
| 20260504045747 | 54 | 66 | 7.0 | 7.0 | 0.05 | 0.00 | 0.13 | 76 | 1011.2 |
| 20260504045248 | 54 | 150 | 2.6 | 2.6 | 0.05 | 0.00 | 0.13 | 75 | 1011.2 |
| 20260504044748 | 55 | 197 | 2.6 | 2.6 | 0.05 | 0.00 | 0.13 | 77 | 1011.2 |
| 20260504044250 | 55 | 208 | 7.8 | 7.8 | 0.05 | 0.00 | 0.13 | 72 | 1011.5 |
| 20260504043747 | 55 | 150 | 2.6 | 2.6 | 0.04 | 0.00 | 0.13 | 74 | 1011.2 |
| 20260504043247 | 55 | 234 | 3.5 | 4.3 | 0.03 | 0.00 | 0.12 | 74 | 1011.2 |
| 20260504042304 | 57 | 246 | 7.0 | 7.0 | 0.01 | 0.00 | 0.10 | 73 | 1010.8 |
| 20260504041749 | 58 | 254 | 6.1 | 6.1 | 0.01 | 0.00 | 0.09 | 69 | 1010.8 |
| 20260504041247 | 57 | 232 | 4.3 | 4.3 | 0.01 | 0.00 | 0.09 | 67 | 1010.2 |
| 20260504040748 | 57 | 174 | 3.5 | 3.5 | 0.01 | 0.00 | 0.09 | 71 | 1010.2 |
| 20260504040247 | 57 | 158 | 3.5 | 3.5 | 0.01 | 0.00 | 0.09 | 70 | 1009.5 |
| 20260504035747 | 57 | 180 | 1.7 | 1.7 | 0.00 | 0.00 | 0.09 | 71 | 1009.8 |
| 20260504035247 | 57 | 258 | 12.2 | 13.0 | 0.00 | 0.00 | 0.08 | 69 | 1009.8 |
| 20260504034748 | 58 | 180 | 7.8 | 8.7 | 0.00 | 0.00 | 0.08 | 68 | 1010.2 |
| 20260504034247 | 59 | 208 | 7.8 | 8.7 | 0.00 | 0.00 | 0.08 | 62 | 1010.2 |
| 20260504033748 | 59 | 176 | 14.8 | 16.5 | 0.00 | 0.00 | 0.08 | 60 | 1010.2 |
| 20260504033248 | 59 | 217 | 11.3 | 13.9 | 0.00 | 0.00 | 0.08 | 63 | 1010.2 |
| 20260504032747 | 59 | 246 | 13.0 | 14.8 | 0.00 | 0.00 | 0.08 | 63 | 1010.2 |
| 20260504032248 | 59 | 246 | 13.0 | 14.8 | 0.00 | 0.00 | 0.08 | 63 | 1010.2 |
| 20260504031747 | 58 | 246 | 8.7 | 10.4 | 0.00 | 0.00 | 0.08 | 63 | 1009.8 |
| 20260504031247 | 58 | 246 | 8.7 | 10.4 | 0.00 | 0.00 | 0.08 | 63 | 1009.8 |
| 20260504030748 | 58 | 246 | 23.5 | 31.3 | 0.00 | 0.00 | 0.08 | 64 | 1009.8 |
| 20260504030248 | 58 | 246 | 23.5 | 31.3 | 0.00 | 0.00 | 0.08 | 64 | 1009.5 |
| 20260504025747 | 58 | 226 | 9.6 | 12.2 | 0.00 | 0.00 | 0.08 | 65 | 1009.8 |
| 20260504025248 | 58 | 204 | 7.0 | 7.0 | 0.00 | 0.00 | 0.08 | 63 | 1009.5 |
| 20260504024748 | 58 | 266 | 15.6 | 18.2 | 0.00 | 0.00 | 0.08 | 62 | 1009.5 |
| 20260504024247 | 58 | 254 | 18.2 | 22.6 | 0.00 | 0.00 | 0.08 | 61 | 1009.5 |
| 20260504023747 | 58 | 270 | 12.2 | 16.5 | 0.00 | 0.00 | 0.08 | 62 | 1009.5 |
| 20260504023247 | 58 | 244 | 16.5 | 17.4 | 0.01 | 0.00 | 0.08 | 60 | 1009.5 |
| 20260504022747 | 58 | 246 | 12.2 | 13.0 | 0.01 | 0.00 | 0.08 | 61 | 1009.8 |
| 20260504022248 | 57 | 252 | 12.2 | 15.6 | 0.01 | 0.00 | 0.08 | 62 | 1009.8 |
| 20260504021747 | 57 | 96 | 1.7 | 1.7 | 0.01 | 0.00 | 0.08 | 64 | 1009.8 |
| 20260504021247 | 57 | 186 | 6.1 | 6.1 | 0.01 | 0.00 | 0.08 | 64 | 1009.8 |
| 20260504020748 | 57 | 78 | 0.9 | 0.9 | 0.01 | 0.00 | 0.08 | 69 | 1009.8 |
| 20260504020247 | 56 | 138 | 6.1 | 6.1 | 0.01 | 0.00 | 0.08 | 67 | 1009.8 |
| 20260504015748 | 56 | 42 | 4.3 | 5.2 | 0.01 | 0.00 | 0.08 | 73 | 1009.5 |
| 20260504015248 | 56 | 48 | 0.0 | 0.0 | 0.01 | 0.00 | 0.08 | 72 | 1010.2 |
| 20260504014749 | 56 | 203 | 4.3 | 4.3 | 0.03 | 0.00 | 0.08 | 71 | 1010.2 |
| 20260504014248 | 56 | 188 | 1.7 | 1.7 | 0.05 | 0.00 | 0.08 | 72 | 1010.5 |
| 20260504013748 | 56 | 266 | 0.0 | 0.0 | 0.06 | 0.00 | 0.08 | 73 | 1010.2 |
| 20260504013248 | 56 | 252 | 2.6 | 2.6 | 0.05 | 0.00 | 0.08 | 72 | 1010.2 |
| 20260504012748 | 56 | 216 | 5.2 | 6.1 | 0.05 | 0.00 | 0.07 | 70 | 1010.2 |
| 20260504012248 | 56 | 182 | 2.6 | 2.6 | 0.05 | 0.00 | 0.07 | 70 | 1010.2 |
| 20260504011747 | 57 | 160 | 1.7 | 1.7 | 0.05 | 0.00 | 0.07 | 67 | 1010.2 |
| 20260504011249 | 56 | 220 | 4.3 | 4.3 | 0.05 | 0.00 | 0.07 | 66 | 1010.2 |
| 20260504010747 | 56 | 248 | 2.6 | 2.6 | 0.05 | 0.00 | 0.07 | 69 | 1010.2 |
| 20260504010247 | 56 | 246 | 3.5 | 3.5 | 0.05 | 0.00 | 0.07 | 71 | 1010.2 |
| 20260504005748 | 56 | 174 | 2.6 | 2.6 | 0.05 | 0.00 | 0.07 | 74 | 1010.2 |
| 20260504005247 | 56 | 207 | 1.7 | 1.7 | 0.05 | 0.00 | 0.07 | 71 | 1010.2 |
| 20260504004747 | 57 | 246 | 0.9 | 0.9 | 0.03 | 0.00 | 0.07 | 73 | 1010.2 |
| 20260504004247 | 57 | 282 | 7.8 | 8.7 | 0.01 | 0.00 | 0.06 | 70 | 1010.8 |
| 20260504003748 | 60 | 282 | 8.7 | 9.6 | 0.00 | 0.00 | 0.02 | 62 | 1010.2 |
| 20260504003247 | 60 | 213 | 2.6 | 2.6 | 0.00 | 0.00 | 0.02 | 61 | 1010.2 |
| 20260504002748 | 60 | 219 | 4.3 | 4.3 | 0.00 | 0.00 | 0.02 | 61 | 1009.8 |
| 20260504002249 | 60 | 235 | 4.3 | 6.1 | 0.00 | 0.00 | 0.02 | 61 | 1010.2 |
| 20260504001747 | 59 | 142 | 2.6 | 2.6 | 0.00 | 0.00 | 0.02 | 63 | 1010.2 |
| 20260504001247 | 59 | 207 | 4.3 | 4.3 | 0.00 | 0.00 | 0.02 | 62 | 1010.2 |
| 20260504000747 | 60 | 182 | 0.0 | 0.0 | 0.00 | 0.00 | 0.02 | 62 | 1010.2 |
| 20260504000248 | 59 | 234 | 4.3 | 5.2 | 0.00 | 0.00 | 0.02 | 60 | 1010.2 |
| 20260503235747 | 59 | 258 | 4.3 | 4.3 | 0.00 | 0.00 | 0.02 | 62 | 1010.2 |
| 20260503235247 | 59 | 126 | 2.6 | 2.6 | 0.00 | 0.00 | 0.02 | 62 | 1010.2 |
| 20260503234747 | 60 | 240 | 3.5 | 4.3 | 0.00 | 0.00 | 0.02 | 61 | 1010.5 |
| 20260503234248 | 59 | 179 | 4.3 | 4.3 | 0.00 | 0.00 | 0.02 | 61 | 1010.5 |
| 20260503233748 | 59 | 132 | 2.6 | 2.6 | 0.00 | 0.00 | 0.02 | 62 | 1010.5 |
| 20260503233247 | 60 | 182 | 2.6 | 2.6 | 0.00 | 0.00 | 0.02 | 62 | 1010.2 |
| 20260503232747 | 60 | 258 | 1.7 | 1.7 | 0.00 | 0.00 | 0.02 | 63 | 1010.2 |
| 20260503232247 | 59 | 183 | 3.5 | 3.5 | 0.00 | 0.00 | 0.02 | 65 | 1010.5 |
| 20260503231747 | 60 | 306 | 0.0 | 0.0 | 0.00 | 0.00 | 0.02 | 65 | 1010.2 |
| 20260503231248 | 60 | 306 | 3.5 | 3.5 | 0.00 | 0.00 | 0.02 | 62 | 1010.5 |
| 20260503230747 | 59 | 292 | 3.5 | 3.5 | 0.00 | 0.00 | 0.02 | 63 | 1010.2 |
| 20260503225801 | 60 | 138 | 0.0 | 0.0 | 0.00 | 0.00 | 0.02 | 64 | 1010.5 |
| 20260503225247 | 60 | 312 | 5.2 | 5.2 | 0.01 | 0.00 | 0.02 | 60 | 1010.5 |
| 20260503224748 | 60 | 278 | 3.5 | 4.3 | 0.02 | 0.00 | 0.02 | 62 | 1010.2 |
| 20260503224247 | 60 | 210 | 4.3 | 4.3 | 0.02 | 0.00 | 0.02 | 62 | 1010.5 |
| 20260503223747 | 60 | 228 | 12.2 | 13.9 | 0.02 | 0.00 | 0.02 | 62 | 1010.5 |
| 20260503223248 | 60 | 207 | 9.6 | 12.2 | 0.02 | 0.00 | 0.02 | 62 | 1010.8 |
| 20260503222749 | 59 | 198 | 7.8 | 9.6 | 0.02 | 0.00 | 0.02 | 63 | 1010.8 |
| 20260503222247 | 59 | 211 | 9.6 | 9.6 | 0.02 | 0.00 | 0.02 | 65 | 1010.5 |
| 20260503221747 | 59 | 220 | 7.0 | 7.0 | 0.02 | 0.00 | 0.02 | 68 | 1010.8 |
| 20260503221249 | 59 | 210 | 4.3 | 6.1 | 0.02 | 0.00 | 0.02 | 66 | 1010.5 |
| 20260503220747 | 59 | 249 | 9.6 | 10.4 | 0.02 | 0.00 | 0.02 | 68 | 1010.5 |
| 20260503220247 | 59 | 234 | 8.7 | 9.6 | 0.02 | 0.00 | 0.02 | 68 | 1010.2 |
| 20260503215747 | 59 | 207 | 8.7 | 9.6 | 0.02 | 0.00 | 0.02 | 67 | 1010.2 |
| 20260503215247 | 59 | 192 | 4.3 | 4.3 | 0.01 | 0.00 | 0.02 | 69 | 1010.2 |
| 20260503214747 | 59 | 241 | 6.1 | 6.1 | 0.00 | 0.00 | 0.02 | 68 | 1010.2 |
| 20260503214247 | 60 | 228 | 9.6 | 11.3 | 0.00 | 0.00 | 0.00 | 63 | 1010.2 |
| 20260503213747 | 60 | 216 | 7.0 | 7.0 | 0.00 | 0.00 | 0.00 | 62 | 1010.2 |
| 20260503213248 | 60 | 230 | 6.1 | 7.0 | 0.00 | 0.00 | 0.00 | 62 | 1010.2 |
| 20260503212747 | 60 | 264 | 7.0 | 7.8 | 0.00 | 0.00 | 0.00 | 63 | 1010.5 |
| 20260503212248 | 60 | 246 | 4.3 | 5.2 | 0.00 | 0.00 | 0.00 | 62 | 1010.5 |
| 20260503211748 | 60 | 192 | 6.1 | 7.0 | 0.00 | 0.00 | 0.00 | 62 | 1010.5 |
| 20260503211247 | 60 | 181 | 6.1 | 7.0 | 0.00 | 0.00 | 0.00 | 62 | 1010.5 |
| 20260503210748 | 61 | 120 | 7.0 | 7.8 | 0.00 | 0.00 | 0.00 | 63 | 1010.8 |
| 20260503210247 | 61 | 211 | 16.5 | 19.1 | 0.00 | 0.00 | 0.00 | 61 | 1010.5 |
| 20260503205748 | 61 | 227 | 8.7 | 9.6 | 0.00 | 0.00 | 0.19 | 63 | 1010.5 |
| 20260503205247 | 60 | 246 | 10.4 | 13.0 | 0.00 | 0.00 | 0.19 | 63 | 1010.2 |
| 20260503204747 | 61 | 287 | 4.3 | 6.1 | 0.00 | 0.00 | 0.19 | 62 | 1010.2 |
| 20260503204248 | 61 | 234 | 9.6 | 9.6 | 0.00 | 0.00 | 0.19 | 63 | 1010.2 |
| 20260503203748 | 61 | 211 | 7.0 | 7.0 | 0.00 | 0.00 | 0.19 | 61 | 1010.2 |
| 20260503203248 | 61 | 242 | 10.4 | 12.2 | 0.00 | 0.00 | 0.19 | 59 | 1010.2 |
| 20260503202747 | 61 | 142 | 0.9 | 0.9 | 0.01 | 0.00 | 0.19 | 64 | 1010.2 |
| 20260503202248 | 61 | 238 | 7.0 | 7.8 | 0.01 | 0.00 | 0.19 | 64 | 1010.2 |
| 20260503201747 | 61 | 276 | 13.0 | 15.6 | 0.01 | 0.00 | 0.19 | 63 | 1010.2 |
| 20260503201247 | 61 | 239 | 7.8 | 7.8 | 0.01 | 0.00 | 0.19 | 62 | 1010.2 |
| 20260503200747 | 62 | 246 | 7.8 | 9.6 | 0.01 | 0.00 | 0.19 | 59 | 1010.2 |
| 20260503200248 | 61 | 270 | 5.2 | 6.1 | 0.01 | 0.00 | 0.19 | 62 | 1009.8 |
| 20260503195747 | 61 | 282 | 7.8 | 9.6 | 0.01 | 0.00 | 0.19 | 64 | 1009.8 |
| 20260503195248 | 62 | 342 | 2.6 | 3.5 | 0.01 | 0.00 | 0.19 | 62 | 1009.8 |
| 20260503194747 | 62 | 228 | 7.0 | 7.0 | 0.01 | 0.00 | 0.19 | 61 | 1009.8 |
| 20260503194247 | 62 | 40 | 2.6 | 2.6 | 0.01 | 0.00 | 0.19 | 57 | 1010.2 |
| 20260503193747 | 61 | 258 | 9.6 | 10.4 | 0.01 | 0.00 | 0.19 | 62 | 1009.8 |
| 20260503193248 | 61 | 318 | 7.8 | 7.8 | 0.01 | 0.00 | 0.19 | 66 | 1009.8 |
| 20260503192747 | 61 | 282 | 8.7 | 9.6 | 0.01 | 0.00 | 0.19 | 67 | 1009.5 |
| 20260503192247 | 62 | 264 | 7.0 | 7.0 | 0.04 | 0.00 | 0.18 | 65 | 1009.5 |
| 20260503191747 | 62 | 258 | 10.4 | 14.8 | 0.06 | 0.00 | 0.18 | 63 | 1009.1 |
| 20260503191248 | 62 | 288 | 7.8 | 9.6 | 0.07 | 0.00 | 0.18 | 61 | 1009.8 |
| 20260503190748 | 62 | 203 | 3.5 | 3.5 | 0.07 | 0.00 | 0.18 | 61 | 1009.8 |
| 20260503190248 | 62 | 318 | 10.4 | 12.2 | 0.07 | 0.00 | 0.18 | 63 | 1009.5 |
| 20260503185748 | 62 | 272 | 3.5 | 4.3 | 0.07 | 0.00 | 0.18 | 64 | 1009.5 |
| 20260503185247 | 62 | 259 | 9.6 | 9.6 | 0.07 | 0.00 | 0.18 | 63 | 1009.8 |
| 20260503184748 | 62 | 286 | 5.2 | 6.1 | 0.07 | 0.00 | 0.18 | 70 | 1009.8 |
| 20260503184248 | 62 | 252 | 6.1 | 7.0 | 0.08 | 0.00 | 0.18 | 68 | 1009.8 |
| 20260503183747 | 63 | 36 | 0.9 | 0.9 | 0.09 | 0.00 | 0.18 | 67 | 1009.1 |
| 20260503183249 | 62 | 282 | 3.5 | 3.5 | 0.10 | 0.00 | 0.18 | 70 | 1009.5 |
| 20260503182748 | 62 | 312 | 9.6 | 11.3 | 0.09 | 0.00 | 0.18 | 69 | 1009.5 |
| 20260503182249 | 62 | 215 | 1.7 | 1.7 | 0.06 | 0.00 | 0.17 | 76 | 1009.5 |
| 20260503181748 | 63 | 276 | 1.7 | 1.7 | 0.04 | 0.00 | 0.13 | 72 | 1009.1 |
| 20260503181247 | 62 | 330 | 4.3 | 6.1 | 0.04 | 0.00 | 0.11 | 72 | 1009.1 |
| 20260503180747 | 62 | 270 | 5.2 | 6.1 | 0.04 | 0.00 | 0.11 | 71 | 1008.8 |
| 20260503180248 | 62 | 354 | 8.7 | 10.4 | 0.04 | 0.00 | 0.11 | 74 | 1008.8 |
| 20260503175749 | 62 | 310 | 3.5 | 3.5 | 0.04 | 0.00 | 0.11 | 74 | 1008.5 |
| 20260503175247 | 62 | 318 | 4.3 | 5.2 | 0.04 | 0.00 | 0.11 | 75 | 1008.5 |
| 20260503174747 | 62 | 288 | 1.7 | 1.7 | 0.03 | 0.00 | 0.11 | 75 | 1008.5 |
| 20260503174247 | 62 | 271 | 7.8 | 9.6 | 0.02 | 0.00 | 0.11 | 73 | 1008.1 |
| 20260503173747 | 62 | 282 | 20.0 | 23.5 | 0.01 | 0.00 | 0.09 | 77 | 1007.5 |
| 20260503173248 | 62 | 306 | 7.8 | 8.7 | 0.00 | 0.00 | 0.08 | 78 | 1007.8 |
| 20260503172747 | 62 | 312 | 4.3 | 4.3 | 0.00 | 0.00 | 0.07 | 75 | 1007.5 |
| 20260503172248 | 63 | 282 | 3.5 | 3.5 | 0.00 | 0.00 | 0.07 | 74 | 1007.5 |
| 20260503171747 | 64 | 294 | 1.7 | 1.7 | 0.00 | 0.00 | 0.07 | 72 | 1007.1 |
| 20260503171248 | 64 | 355 | 10.4 | 11.3 | 0.00 | 0.00 | 0.07 | 69 | 1007.5 |
| 20260503170748 | 64 | 212 | 4.3 | 6.1 | 0.00 | 0.00 | 0.07 | 68 | 1007.8 |
| 20260503170247 | 64 | 255 | 3.5 | 4.3 | 0.00 | 0.00 | 0.07 | 65 | 1007.5 |
| 20260503150748 | 63 | 228 | 14.8 | 17.4 | 0.00 | 0.00 | 0.04 | 69 | 1007.1 |
| 20260503150249 | 63 | 242 | 7.8 | 7.8 | 0.00 | 0.00 | 0.04 | 69 | 1007.1 |
| 20260503140251 | 64 | 276 | 21.7 | 23.5 | 0.03 | 0.00 | 0.04 | 72 | 1006.4 |
| 20260503131247 | 64 | 288 | 9.6 | 10.4 | 0.01 | 0.00 | 0.03 | 75 | 1005.8 |
| 20260503130747 | 65 | 276 | 16.5 | 18.2 | 0.00 | 0.00 | 0.01 | 72 | 1005.8 |
| 20260503130248 | 67 | 276 | 20.0 | 23.5 | 0.00 | 0.00 | 0.01 | 71 | 1005.4 |